C/2017 AB5 ( PanSTARRS )

Japanese version
Home page
Updated on February 13, 2018

---------------------------------------------------------------------

* Profile

Discovery Date January 3, 2017
Magnitude 21.3 mag
Discoverer Pan-STARRS 1 telescope (Haleakala)

* Pictures

* Orbital Elements

Epoch 2018 Feb. 11.0 TT = JDT 2458160.5
T 2018 Feb. 17.31675 TT                                 MPCW
q   9.2168799            (2000.0)            P               Q
z  +0.0000211      Peri.   78.36653     -0.41232781     -0.83531928
 +/-0.0000053      Node    42.69161     +0.47399870     -0.53756148
e   0.9998058      Incl.   32.43128     +0.77801736     -0.11519270
From 46 observations 2017 Jan. 3-2018 Jan. 20, mean residual 0".3.

* Magnitudes Graph

        m1 = 5.5 + 5 log d + 10.0 log r

---------------------------------------------------------------------

The orbital elements are published on M.P.E.C. 2018-B155.
The magnitudes graphs are made with Comet for Windows.

---------------------------------------------------------------------

Copyright(C) Seiichi Yoshida (comet@aerith.net). All rights reserved.